Regional Weather Roundup
Issued by NWS Cleveland, OH

Home | Current Version | Previous Version | Text Only | Print | Product List | Glossary Off
Versions: 1 2 3 4 5 6 7 8 9 10 11 12 13 14 15 16 17 18 19 20 21 22 23 24 25 26 27 28 29 30 31 32 33 34 35 36 37 38 39 40 41 42 43 44 45 46 47 48 49 50

000
ASUS41 KCLE 250710
RWRCLE
OHIO REGIONAL WEATHER ROUNDUP
NATIONAL WEATHER SERVICE CLEVELAND, OH
200 AM EST SUN FEB 25 2018

NOTE: "FAIR" INDICATES FEW OR NO CLOUDS BELOW 12,000 FEET WITH NO
SIGNIFICANT WEATHER AND/OR OBSTRUCTIONS TO VISIBILITY.

OHZ001>008-015>018-024>027-034-035-043-044-250800-
   NORTHWEST OHIO

CITY           SKY/WX    TMP DP  RH WIND       PRES   REMARKS
DEFIANCE       CLOUDY    45  43  93 E5        29.56F
FINDLAY        MOCLDY    52  49  89 S20       29.58R
TOLEDO EXPRESS CLOUDY    43  43 100 E6        29.57F FOG
TOLEDO EXEC    CLOUDY    42  41  96 NE9       29.57F FOG
LIMA           FAIR      52  51  97 SE16      29.58R
$$

OHZ009>014-019>023-028>033-038-089-250800-
   NORTHEAST OHIO

CITY           SKY/WX    TMP DP  RH WIND       PRES   REMARKS
CLE-HOPKINS    LGT RAIN  50  48  93 SE12      29.72F
CLE-LAKEFRONT  LGT RAIN  48  45  89 SE18G26   29.70F
CUY CO. ARPT   NOT AVBL
LORAIN-ELYRIA  LGT RAIN  47  43  86 S17       29.67F FOG
ASHTABULA      LGT RAIN  47  45  93 SE15      29.77F
AKRON-CANTON   LGT RAIN  49  46  90 SE15      29.73F FOG
WOOSTER        LGT RAIN  49  48  97 SE9       29.70F FOG
MANSFIELD      LGT RAIN  49  48  97 E10       29.64F FOG
YOUNGSTOWN     RAIN      47  45  93 SE13      29.78F FOG
$$

OHZ042-051>053-060>062-070>072-077>081-250800-
  SOUTHWEST OHIO

CITY           SKY/WX    TMP DP  RH WIND       PRES   REMARKS
CINC-COVINGTON LGT RAIN  57  56  96 S16       29.72F
CINC-LUNKEN    LGT RAIN  58  57  97 S17G24    29.74F
HAMILTON       CLOUDY    58  56  93 S13G20    29.67F
DAYTON         CLOUDY    52  52 100 S17       29.63F
WRIGHT-PAT AFB CLOUDY    54  52  94 SE14G22   29.64F
DAYTON GENERAL MOCLDY    57  54  89 S17G24    29.67R
WILMINGTON     LGT RAIN  57  57 100 SW17G25   29.72F
$$

OHZ036-037-039>041-045>050-054>059-063>069-073>076-082>088-250800-
  CENTRAL AND SOUTHEAST OHIO

CITY           SKY/WX    TMP DP  RH WIND       PRES   REMARKS
COLUMBUS       LGT RAIN  56  55  97 S7        29.69F
OSU AIRPORT    LGT RAIN  53  53 100 SE10      29.65F
BOLTON FIELD   LGT RAIN  54  54 100 S12       29.69F
RICKENBACK AFB LGT RAIN  56  56 100 SW18      29.71R
NEWARK         LGT RAIN  56  54  93 SW10      29.70F
MARION         CLOUDY    51  49  92 S14       29.64F
LANCASTER      CLOUDY    60  57  89 SW23G37   29.73F
ZANESVILLE     CLOUDY    57  54  89 S14       29.71F
NEW PHILLY     NOT AVBL
$$




USA.gov is the U.S. government's official web portal to all federal, state and local government web resources and services.